TimeEDT,TemperatureF,Dew PointF,Humidity,Sea Level PressureIn,VisibilityMPH,Wind Direction,Wind SpeedMPH,Gust SpeedMPH,PrecipitationIn,Events,Conditions,WindDirDegrees,DateUTC
12:15 AM,44.6,33.8,66,30.24,10.0,Calm,Calm,-,N/A,,Clear,0,2013-03-11 04:15:00
12:35 AM,46.4,37.4,71,30.23,10.0,Calm,Calm,-,N/A,,Clear,0,2013-03-11 04:35:00
12:55 AM,44.6,37.4,76,30.22,10.0,Calm,Calm,-,N/A,,Clear,0,2013-03-11 04:55:00
1:15 AM,44.6,37.4,76,30.22,10.0,Calm,Calm,-,N/A,,Clear,0,2013-03-11 05:15:00
1:35 AM,42.8,39.2,87,30.22,10.0,Calm,Calm,-,N/A,,Clear,0,2013-03-11 05:35:00
1:55 AM,42.8,37.4,81,30.22,10.0,Calm,Calm,-,N/A,,Clear,0,2013-03-11 05:55:00
2:35 AM,44.6,41.0,87,30.19,10.0,Calm,Calm,-,N/A,,Clear,0,2013-03-11 06:35:00
2:55 AM,46.4,44.6,93,30.19,10.0,Calm,Calm,-,N/A,,Clear,0,2013-03-11 06:55:00
3:15 AM,44.6,42.8,93,30.19,10.0,Calm,Calm,-,N/A,,Clear,0,2013-03-11 07:15:00
3:55 AM,46.4,46.4,100,30.18,10.0,Calm,Calm,-,N/A,,Clear,0,2013-03-11 07:55:00
4:15 AM,46.4,46.4,100,30.17,10.0,Calm,Calm,-,N/A,,Clear,0,2013-03-11 08:15:00
4:35 AM,44.6,44.6,100,30.15,10.0,Calm,Calm,-,N/A,,Clear,0,2013-03-11 08:35:00
4:55 AM,46.4,46.4,100,30.15,10.0,Calm,Calm,-,N/A,,Clear,0,2013-03-11 08:55:00
5:15 AM,44.6,44.6,100,30.15,10.0,Calm,Calm,-,N/A,,Clear,0,2013-03-11 09:15:00
5:35 AM,44.6,44.6,100,30.15,10.0,Calm,Calm,-,N/A,,Clear,0,2013-03-11 09:35:00
6:15 AM,46.4,46.4,100,30.14,10.0,Calm,Calm,-,N/A,,Clear,0,2013-03-11 10:15:00
6:35 AM,46.4,46.4,100,30.14,10.0,Calm,Calm,-,N/A,,Clear,0,2013-03-11 10:35:00
6:55 AM,50.0,50.0,100,30.14,7.0,East,4.6,-,N/A,,Clear,80,2013-03-11 10:55:00
7:15 AM,51.8,51.8,100,30.14,7.0,East,5.8,-,N/A,,Clear,80,2013-03-11 11:15:00
7:35 AM,51.8,51.8,100,30.14,7.0,East,4.6,-,N/A,,Clear,90,2013-03-11 11:35:00
7:55 AM,51.8,51.8,100,30.14,7.0,East,4.6,-,N/A,,Clear,100,2013-03-11 11:55:00
8:15 AM,51.8,51.8,100,30.14,7.0,ENE,3.5,-,N/A,,Clear,70,2013-03-11 12:15:00
8:35 AM,51.8,51.8,100,30.14,7.0,East,5.8,-,N/A,,Clear,90,2013-03-11 12:35:00
8:55 AM,53.6,53.6,100,30.12,7.0,East,5.8,-,N/A,,Clear,100,2013-03-11 12:55:00
9:15 AM,55.4,53.6,94,30.13,10.0,East,6.9,-,N/A,,Clear,100,2013-03-11 13:15:00
9:35 AM,55.4,55.4,100,30.13,10.0,East,4.6,-,N/A,,Clear,100,2013-03-11 13:35:00
9:55 AM,59.0,55.4,88,30.13,10.0,East,3.5,-,N/A,,Clear,90,2013-03-11 13:55:00
10:15 AM,60.8,55.4,82,30.13,10.0,East,4.6,-,N/A,,Clear,100,2013-03-11 14:15:00
10:35 AM,62.6,55.4,77,30.12,10.0,ESE,5.8,-,N/A,,Clear,120,2013-03-11 14:35:00
10:55 AM,66.2,57.2,73,30.11,10.0,ESE,10.4,-,N/A,,Clear,110,2013-03-11 14:55:00
11:15 AM,68.0,57.2,68,30.11,10.0,ESE,10.4,-,N/A,,Clear,110,2013-03-11 15:15:00
11:35 AM,69.8,57.2,64,30.11,10.0,SE,9.2,-,N/A,,Clear,130,2013-03-11 15:35:00
11:55 AM,69.8,57.2,64,30.11,10.0,SE,9.2,-,N/A,,Clear,140,2013-03-11 15:55:00
12:15 PM,69.8,57.2,64,30.11,10.0,SSE,10.4,16.1,N/A,,Clear,150,2013-03-11 16:15:00
12:35 PM,69.8,55.4,60,30.10,10.0,SE,12.7,18.4,N/A,,Clear,140,2013-03-11 16:35:00
12:55 PM,69.8,57.2,64,30.10,10.0,SSE,11.5,18.4,N/A,,Clear,150,2013-03-11 16:55:00
1:15 PM,71.6,57.2,60,30.08,10.0,SSE,13.8,18.4,N/A,,Clear,150,2013-03-11 17:15:00
1:35 PM,69.8,55.4,60,30.07,10.0,SSE,10.4,18.4,N/A,,Clear,150,2013-03-11 17:35:00
1:55 PM,71.6,57.2,60,30.06,10.0,SSE,10.4,16.1,N/A,,Clear,150,2013-03-11 17:55:00
2:15 PM,71.6,55.4,57,30.05,10.0,South,10.4,17.3,N/A,,Clear,170,2013-03-11 18:15:00
2:35 PM,71.6,55.4,57,30.04,10.0,SSE,9.2,-,N/A,,Clear,150,2013-03-11 18:35:00
2:55 PM,71.6,53.6,53,30.04,10.0,SSE,9.2,18.4,N/A,,Clear,160,2013-03-11 18:55:00
3:15 PM,71.6,55.4,57,30.02,10.0,SSE,11.5,18.4,N/A,,Clear,150,2013-03-11 19:15:00
3:35 PM,69.8,55.4,60,30.02,10.0,SE,13.8,-,N/A,,Clear,140,2013-03-11 19:35:00
3:55 PM,71.6,55.4,57,30.00,10.0,SE,9.2,-,N/A,,Clear,140,2013-03-11 19:55:00
4:15 PM,71.6,55.4,57,30.00,10.0,SSE,10.4,-,N/A,,Clear,160,2013-03-11 20:15:00
4:35 PM,71.6,55.4,57,29.99,10.0,SSE,9.2,-,N/A,,Clear,150,2013-03-11 20:35:00
4:55 PM,71.6,53.6,53,29.99,10.0,SSE,11.5,18.4,N/A,,Clear,160,2013-03-11 20:55:00
5:15 PM,69.8,53.6,56,30.00,10.0,SSE,10.4,19.6,N/A,,Clear,160,2013-03-11 21:15:00
5:35 PM,69.8,55.4,60,30.00,10.0,SSE,6.9,17.3,N/A,,Clear,160,2013-03-11 21:35:00
5:55 PM,69.8,55.4,60,29.98,10.0,SE,8.1,-,N/A,,Clear,130,2013-03-11 21:55:00
6:15 PM,69.8,55.4,60,29.98,10.0,SE,10.4,-,N/A,,Clear,130,2013-03-11 22:15:00
6:35 PM,69.8,55.4,60,29.98,10.0,SE,9.2,-,N/A,,Clear,140,2013-03-11 22:35:00
6:55 PM,68.0,55.4,64,29.97,10.0,SE,10.4,-,N/A,,Clear,130,2013-03-11 22:55:00
7:15 PM,68.0,55.4,64,29.97,10.0,SE,8.1,-,N/A,,Clear,130,2013-03-11 23:15:00
7:35 PM,68.0,57.2,68,29.97,10.0,SE,10.4,-,N/A,,Clear,130,2013-03-11 23:35:00
7:55 PM,68.0,57.2,68,29.96,10.0,ESE,10.4,-,N/A,,Clear,120,2013-03-11 23:55:00
8:15 PM,66.2,57.2,73,29.95,10.0,ESE,10.4,-,N/A,,Clear,110,2013-03-12 00:15:00
8:35 PM,66.2,57.2,73,29.93,10.0,ESE,9.2,17.3,N/A,,Clear,120,2013-03-12 00:35:00
8:55 PM,66.2,57.2,73,29.96,10.0,SE,9.2,-,N/A,,Clear,140,2013-03-12 00:55:00
9:15 PM,64.4,57.2,77,29.96,10.0,SE,9.2,-,N/A,,Clear,130,2013-03-12 01:15:00
9:35 PM,64.4,59.0,83,29.95,10.0,ESE,11.5,-,N/A,,Clear,120,2013-03-12 01:35:00
9:55 PM,64.4,59.0,83,29.94,10.0,ESE,10.4,16.1,N/A,,Clear,120,2013-03-12 01:55:00
10:15 PM,64.4,59.0,83,29.95,10.0,SE,13.8,17.3,N/A,,Clear,130,2013-03-12 02:15:00
10:35 PM,64.4,59.0,83,29.94,10.0,SE,9.2,-,N/A,,Clear,130,2013-03-12 02:35:00
10:55 PM,64.4,59.0,83,29.94,10.0,SE,6.9,-,N/A,,Clear,130,2013-03-12 02:55:00
11:15 PM,64.4,60.8,88,29.91,10.0,ESE,8.1,-,N/A,,Clear,110,2013-03-12 03:15:00
11:35 PM,64.4,60.8,88,29.93,10.0,SE,5.8,-,N/A,,Clear,140,2013-03-12 03:35:00
11:55 PM,64.4,60.8,88,29.94,10.0,SE,5.8,-,N/A,,Clear,140,2013-03-12 03:55:00